Regional Weather Roundup
Issued by NWS Little Rock, AR

Home | Current Version | Previous Version | Graphics & Text | Print | Product List | Glossary On
Versions: 1 2 3 4 5 6 7 8 9 10 11 12 13 14 15 16 17 18 19 20 21 22 23 24 25 26 27 28 29 30 31 32 33 34 35 36 37 38 39 40 41 42 43 44 45 46 47 48 49 50
102
ASUS44 KLZK 231605
RWRLZK

WEATHER ROUNDUP FOR ARKANSAS
NATIONAL WEATHER SERVICE LITTLE ROCK AR
1000 AM CST FRI FEB 23 2018

NOTE: "FAIR" INDICATES FEW OR NO CLOUDS BELOW 12,000 FEET WITH NO
SIGNIFICANT WEATHER AND/OR OBSTRUCTIONS TO VISIBILITY.

ARZ001-003-010-029-231700-
NORTHWEST ARKANSAS

CITY           SKY/WX    TMP DP  RH WIND       PRES   REMARKS
FAYETTEVILLE   CLOUDY    46  46 100 E3        30.26S FOG
FORT SMITH     CLOUDY    47  46  97 VRB3      30.28R
HARRISON       FOG       45  45 100 VRB5      30.28R VSB 1
BENTONVILLE    CLOUDY    44  42  93 E5        30.27F
ROGERS         CLOUDY    43  43 100 E6        30.26F
SILOAM SPGS    CLOUDY    44  43  96 SE7       30.26F
HIGHFILL       CLOUDY    45  45 100 E6        30.25F
SPRINGDALE     CLOUDY    45  45 100 E6        30.27F
$$

ARZ004-005-016-231700-
NORTH CENTRAL ARKANSAS

CITY           SKY/WX    TMP DP  RH WIND       PRES   REMARKS
BATESVILLE     CLOUDY    50  49  96 W3        30.32R
FLIPPIN        CLOUDY    47  44  90 NE3       30.29S
MTN HOME       PTSUNNY   47  46  97 CALM      30.27F
$$

ARZ040-041-231700-
WEST CENTRAL ARKANSAS

CITY           SKY/WX    TMP DP  RH WIND       PRES   REMARKS
MENA           CLOUDY    52  50  93 CALM      30.27S
MOUNT IDA      LGT RAIN  51  51 100 CALM      30.26R
$$

ARZ009-017-025-026-028-231700-
NORTHEAST ARKANSAS

CITY           SKY/WX    TMP DP  RH WIND       PRES   REMARKS
JONESBORO      LGT RAIN  53  53 100 CALM      30.29S
NEWPORT          N/A     51  50  96 MISG      30.31S
WALNUT RIDGE   FAIR      50  48  93 SW3       30.31R
BLYTHEVILLE    CLOUDY    57  57 100 CALM      30.30F
NW BLYTHEVILLE LGT RAIN  55  54  94 NE3       30.30F
$$

ARZ022-023-033-042-044-231700-
CENTRAL ARKANSAS

CITY           SKY/WX    TMP DP  RH WIND       PRES   REMARKS
LITTLE ROCK    LGT RAIN  53  53 100 N5        30.29S
N LITTLE ROCK    N/A     50  50 100 CALM      30.26F
JACKSONVILLE   CLOUDY    52  52 100 CALM      30.28S
SEARCY         LGT RAIN  52  52 100 N3        30.30F
HOT SPRINGS    RAIN      52  52 100 E3        30.28S FOG
RUSSELLVILLE   CLOUDY    48  48 100 SE3       30.29R
CLINTON        LGT RAIN  50  50 100 E3        30.27F
$$

ARZ036-231700-
EAST ARKANSAS

CITY           SKY/WX    TMP DP  RH WIND       PRES   REMARKS
WEST MEMPHIS   CLOUDY    58  32  37 S3        30.28F
$$

ARZ050-053-066-070-073-231700-
SOUTHWEST ARKANSAS

CITY           SKY/WX    TMP DP  RH WIND       PRES   REMARKS
ARKADELPHIA    LGT RAIN  50  50 100 CALM      30.30R
CAMDEN         DRIZZLE   52  50  93 SE3       30.29F
TEXARKANA      CLOUDY    52  52 100 E5        30.25F
EL DORADO      CLOUDY    53  53 100 N5        30.29S
DE QUEEN       RAIN      50  50 100 CALM      30.25S FOG
$$

ARZ056-057-069-231700-
SOUTHEAST ARKANSAS

CITY           SKY/WX    TMP DP  RH WIND       PRES   REMARKS
PINE BLUFF     CLOUDY    53  53 100 SE5       30.28F
STUTTGART      CLOUDY    54  53  97 VRB5      30.30R
MONTICELLO     CLOUDY    60  57  89 CALM      30.28S

$$






USA.gov is the U.S. government's official web portal to all federal, state and local government web resources and services.